Theta_e
305 306 306 306 306 306 307 309 309 309 309 309 309 309 308 308 305 306 308 307 305 305 300 299 299 299 299 298 299 301 302 306 309 305 302 299 300 299 300 299 299 301 304 304 302
305 305 305 305 305 306 308 309 309 308 308 308 308 307 308 308 307 307 307 305 304 301 300 301 300 299 297 298 298 300 301 300 303 300 299 299 299 299 299 298 299 299 301 303 301
304 304 305 305 304 306 307 307 307 307 307 307 307 307 306 306 305 305 304 303 301 298 300 300 299 298 298 296 297 298 300 300 299 298 299 300 299 299 299 298 298 298 299 300 301
305 303 303 304 303 305 306 307 306 307 307 306 307 306 304 304 303 302 303 303 299 298 299 300 297 298 297 299 299 298 299 299 299 300 301 301 299 299 299 299 299 298 299 299 301
303 303 302 302 303 306 306 306 306 306 306 306 307 306 304 302 302 303 302 301 298 298 299 299 299 299 299 299 299 299 298 300 301 300 300 300 300 300 300 299 298 298 299 299 300
303 302 304 304 304 305 305 305 306 306 306 306 306 304 304 299 303 300 298 298 297 298 299 300 300 300 300 300 300 299 300 300 300 300 300 300 300 300 299 299 298 299 299 299 299
302 301 302 302 303 304 304 304 305 303 302 303 301 304 302 303 299 296 297 296 297 297 299 300 300 300 299 299 299 300 301 300 299 300 300 300 300 300 299 299 299 300 301 301 300
301 302 303 302 301 302 302 302 302 300 301 303 303 303 302 303 299 296 298 298 298 297 299 299 300 300 300 299 300 300 299 300 300 301 301 301 302 301 299 299 301 299 300 300 300
302 304 302 302 302 301 301 301 300 300 302 302 302 302 299 297 296 296 297 297 298 299 301 301 300 299 298 298 293 292 297 299 300 300 300 301 302 301 300 300 300 301 301 301 300
301 303 302 303 301 299 297 302 298 298 300 300 296 294 294 294 296 297 298 298 298 299 298 300 297 294 293 293 296 298 301 302 303 300 300 301 301 301 301 301 301 300 300 301 301
302 303 303 303 302 299 296 301 293 293 296 294 294 295 294 296 296 297 298 299 298 297 296 298 297 294 297 297 298 299 302 303 301 301 302 302 302 302 302 302 302 302 301 301 300
301 302 303 303 302 300 295 297 296 295 294 297 295 294 295 295 295 295 298 297 293 292 295 293 291 297 298 299 300 300 302 302 301 301 302 303 303 302 302 301 296 297 298 298 299
301 303 303 303 303 301 296 297 296 296 295 295 293 294 295 294 295 295 297 298 292 296 295 299 299 299 300 300 298 298 300 301 302 302 300 301 303 302 299 297 296 295 294 295 295
301 303 303 303 302 301 298 296 295 296 287 291 293 293 294 295 295 296 298 299 299 295 299 297 298 300 300 298 299 299 300 302 303 301 301 301 302 301 299 298 296 295 294 294 294
301 304 304 301 301 299 297 294 295 296 292 292 292 293 293 295 296 298 298 299 299 294 292 295 298 299 297 300 300 300 301 299 299 300 301 294 302 298 296 295 294 294 294 293 293
301 304 304 302 300 295 294 295 296 292 289 288 291 293 292 294 296 296 297 298 298 298 296 294 296 299 299 300 300 299 296 295 295 297 296 293 298 295 295 294 293 293 293 292 293
302 305 303 301 299 294 295 295 293 291 286 287 290 293 292 294 296 296 298 299 296 293 291 292 292 294 298 300 298 298 290 289 291 291 295 289 301 291 294 292 291 292 292 292 292
304 304 301 297 294 294 296 292 288 282 281 291 292 293 295 295 294 293 297 296 297 295 290 290 296 290 296 299 298 295 296 295 296 297 298 294 297 299 296 292 290 290 291 291 292
305 300 296 294 293 295 291 288 290 285 292 293 292 287 284 293 292 288 292 295 298 290 290 293 292 294 296 299 297 294 294 297 299 290 297 296 296 295 292 291 290 290 290 290 291
302 298 294 294 293 295 292 294 288 291 293 293 289 289 286 284 291 286 290 294 299 295 290 291 296 290 292 298 295 292 293 293 296 295 292 291 285 291 291 290 289 289 289 289 290
301 298 295 292 295 294 291 289 288 290 293 294 292 287 292 287 290 286 291 295 297 297 295 289 294 293 295 293 298 294 292 294 296 299 298 296 292 293 292 290 290 289 289 289 290
298 302 293 293 295 291 290 288 290 292 292 293 293 292 289 289 291 284 290 291 294 289 294 294 293 297 293 295 298 293 298 297 299 296 299 298 296 294 291 290 289 289 288 289 289
297 295 292 295 297 295 288 289 291 293 293 294 293 294 292 287 290 294 293 294 295 293 293 295 287 294 296 296 296 298 299 297 298 298 298 299 296 293 291 289 289 288 288 288 288
297 300 293 293 294 294 291 289 291 291 293 293 294 294 294 290 291 288 295 295 295 294 296 295 295 291 294 296 295 297 298 295 296 292 296 297 296 293 290 289 288 288 287 287 288
298 299 294 295 295 294 292 292 292 293 293 293 291 294 293 290 291 289 294 295 294 293 293 288 283 291 292 291 292 297 295 294 292 295 297 296 296 293 291 289 288 287 287 287 287
298 297 294 295 295 295 295 293 294 292 293 293 291 293 293 289 293 292 294 294 293 291 292 291 282 286 285 294 296 300 299 294 293 291 290 293 295 294 291 289 287 287 287 286 286
295 295 299 298 295 297 296 296 295 292 292 293 293 294 294 294 291 291 292 292 292 292 291 287 282 280 287 289 289 293 292 289 291 288 291 295 294 293 292 289 287 286 286 286 285
Wind_Speed
10 11 12 14 15 13 13 14 14 14 15 15 16 17 18 16 5 16 12 11 14 17 17 20 21 25 7 4 5 2 2 2 4 2 5 5 5 5 3 5 4 5 4 8 22
8 9 12 14 14 12 14 16 14 14 14 15 17 17 17 13 4 14 9 13 15 16 17 17 9 15 5 7 5 4 2 6 3 2 4 4 5 5 6 9 5 16 14 13 26
10 10 12 14 13 13 15 15 16 15 15 15 16 16 15 5 2 4 9 11 15 15 12 10 9 4 5 5 5 5 4 1 5 4 5 7 11 4 5 12 7 10 11 21 20
10 10 12 15 12 13 13 15 16 15 14 15 15 16 10 2 2 5 8 11 13 16 13 10 6 5 4 4 4 5 5 4 6 5 6 7 6 8 9 17 14 13 17 15 19
12 14 17 16 13 14 15 15 14 13 12 12 12 13 4 5 2 6 10 10 11 12 13 4 6 4 3 4 6 4 5 5 9 14 11 15 18 13 21 20 12 12 16 20 18
15 14 15 16 16 16 15 15 14 13 11 10 10 7 2 5 4 8 11 10 11 6 4 4 1 3 2 2 1 4 8 14 13 19 12 19 17 2 16 7 10 10 13 16 17
14 14 16 17 15 14 13 14 13 11 9 8 5 3 5 4 2 16 13 10 7 6 1 1 1 4 4 5 4 7 10 8 10 5 6 4 6 12 20 10 12 15 13 13 16
16 13 17 14 15 15 14 12 10 6 5 7 6 3 2 2 5 13 13 6 14 6 5 5 3 1 1 5 5 5 4 6 4 7 6 5 12 7 12 9 17 11 13 9 12
11 14 13 16 16 16 16 11 3 4 3 4 3 3 2 5 13 11 10 7 12 10 8 1 2 1 3 4 4 6 5 9 8 3 6 8 14 3 4 12 23 24 19 16 10
11 14 13 15 15 18 15 3 4 5 2 2 3 4 5 6 13 10 11 7 3 8 5 5 4 3 4 4 3 10 12 13 16 5 8 15 27 24 21 20 21 21 20 16 15
10 11 12 14 14 17 11 1 6 4 10 3 3 2 5 12 3 6 6 6 4 5 4 3 4 2 6 7 8 10 16 21 20 18 19 17 22 21 18 16 17 19 17 14 13
10 10 12 11 12 14 10 7 2 1 1 2 3 3 4 7 4 5 8 5 6 2 6 6 2 5 5 8 7 11 20 22 18 9 10 17 22 24 22 6 7 11 9 9 8
9 8 9 9 9 8 15 7 2 1 2 3 2 2 4 5 4 6 6 3 3 2 3 3 5 6 3 9 8 7 10 15 19 17 18 20 14 7 4 2 11 13 12 11 12
8 7 5 7 2 4 3 3 3 1 5 6 3 3 4 2 3 6 3 1 1 1 5 6 4 4 9 6 5 12 7 18 21 15 7 6 6 4 10 11 17 17 16 15 16
7 6 4 4 1 2 2 3 1 0 4 3 6 6 7 5 4 3 9 1 3 3 5 6 4 5 5 7 10 10 16 22 21 14 10 6 3 3 6 14 22 21 22 22 20
7 5 3 2 1 1 2 0 1 6 4 5 4 7 6 6 6 6 6 5 2 3 2 7 4 3 4 12 11 10 10 15 2 2 1 4 2 2 5 12 19 20 20 20 21
8 7 5 2 1 1 1 1 5 5 3 6 4 5 1 4 5 6 5 9 4 7 7 8 4 4 4 7 4 16 7 5 6 4 4 3 4 3 2 10 12 20 20 19 19
10 8 4 2 1 1 1 5 4 2 5 1 2 3 2 6 3 5 3 4 3 2 2 4 8 4 7 2 7 8 3 0 6 4 11 4 3 2 3 14 15 16 17 17 18
12 8 3 2 2 1 5 4 7 7 4 2 2 6 5 2 1 5 2 2 2 3 3 3 6 5 3 3 2 8 7 6 5 5 4 3 3 5 18 19 19 18 17 17 17
15 7 3 1 3 4 4 5 3 2 4 3 4 3 2 4 4 4 2 3 2 3 2 3 6 4 7 5 4 5 5 5 3 6 6 5 4 5 20 24 20 20 19 17 16
11 3 0 0 4 3 3 5 4 4 1 3 4 3 4 2 2 2 3 4 1 1 4 3 2 7 2 2 3 6 5 3 2 2 3 5 4 6 19 19 19 16 15 15 15
7 1 4 3 2 1 2 3 3 3 1 2 3 3 5 3 2 2 4 6 2 4 1 2 2 6 8 4 1 4 7 3 2 5 4 3 4 14 17 15 15 15 13 14 13
3 2 3 3 3 2 1 2 2 3 3 5 4 4 4 4 1 4 3 4 2 3 2 1 2 5 8 4 3 5 14 10 5 3 3 4 6 10 15 16 15 14 15 13 12
3 3 1 0 1 3 4 4 3 1 3 3 3 2 3 2 3 4 3 2 2 2 3 3 2 5 5 5 2 6 11 10 4 2 8 4 11 14 17 19 17 15 13 13 12
1 2 3 3 3 4 3 5 4 4 3 4 2 6 6 2 1 4 4 4 2 3 2 3 3 2 7 11 3 5 5 8 5 7 3 11 13 9 17 15 15 14 14 14 14
5 4 2 3 2 7 5 6 9 4 7 5 4 5 8 6 7 6 3 3 3 2 2 1 2 1 5 5 7 4 4 6 4 5 4 10 5 13 11 13 16 15 15 14 13
4 2 2 8 3 4 5 7 9 8 6 3 8 4 7 13 6 4 3 1 2 2 1 2 2 3 5 5 4 4 4 2 3 2 3 5 6 13 6 15 16 17 16 15 15
Wind_Direction
6 6 5 358 349 354 356 350 346 349 349 351 348 348 353 355 32 44 46 4 354 349 357 358 10 3 21 28 2 72 75 251 268 236 298 322 1 313 259 238 326 282 304 277 325
2 349 353 351 346 348 345 348 356 355 350 344 343 343 347 347 67 51 14 6 5 360 7 3 352 352 15 6 9 67 137 226 214 229 265 289 285 304 310 302 285 297 287 286 323
338 340 347 349 349 341 343 346 345 343 343 341 338 338 343 352 77 354 7 10 10 5 7 12 357 29 32 21 3 329 228 314 264 290 316 301 299 229 258 276 231 269 288 300 304
329 329 336 336 335 331 333 334 333 332 333 335 335 339 349 22 71 339 358 355 358 13 24 16 10 32 33 357 346 334 282 297 302 350 333 296 270 281 271 261 252 270 286 292 298
348 339 335 337 338 331 327 326 325 328 332 334 337 341 12 46 45 342 333 344 357 7 28 31 37 12 13 320 323 222 291 299 298 297 287 281 277 275 271 269 260 255 268 273 277
334 335 344 340 336 330 331 335 337 336 336 338 337 353 56 78 330 349 344 333 351 12 19 47 60 277 276 287 270 304 296 291 285 282 277 267 271 266 271 274 271 262 259 265 267
342 338 337 337 339 338 337 333 331 335 346 354 6 71 68 152 16 355 354 348 358 352 12 2 24 42 358 309 308 276 294 291 270 264 254 271 270 223 255 276 259 276 270 260 262
334 336 337 343 343 339 336 335 337 352 30 42 37 28 97 353 341 356 5 3 359 27 9 316 315 92 151 294 304 323 313 328 313 296 264 125 263 266 250 267 273 256 272 250 250
340 340 345 346 345 343 339 340 19 48 60 25 25 17 5 338 346 356 353 329 336 4 8 347 69 73 2 342 354 12 294 288 311 265 270 200 288 196 298 282 283 282 272 269 252
324 336 343 347 348 350 349 37 60 45 17 359 15 44 17 314 324 331 349 353 349 351 17 34 44 32 11 64 289 292 297 283 285 279 268 275 275 280 280 273 270 271 272 270 275
326 333 339 344 349 358 9 87 18 355 40 96 297 279 307 328 346 338 345 353 21 47 24 14 30 245 265 220 246 279 278 283 280 283 284 283 276 287 285 281 286 277 273 274 275
324 327 333 342 345 7 33 70 97 225 5 8 316 289 294 341 323 316 352 35 54 357 339 16 232 220 270 268 256 262 283 289 288 264 291 288 284 288 290 326 11 7 357 333 316
317 324 331 340 340 10 59 70 49 291 82 328 346 330 318 2 324 295 10 5 112 344 57 288 255 319 265 297 292 249 268 289 283 307 295 275 280 279 87 88 8 0 347 336 324
310 311 323 335 356 1 55 23 5 138 71 309 337 5 342 333 304 287 321 290 296 255 324 251 277 299 304 266 292 309 254 298 295 310 301 40 296 36 346 348 347 344 341 331 322
290 296 302 3 41 48 358 339 55 215 20 303 315 313 343 53 317 356 358 335 279 269 76 258 312 0 311 298 331 270 312 291 287 283 289 318 243 14 9 348 340 337 336 330 326
270 264 253 261 60 87 360 102 125 41 265 340 325 353 13 3 348 315 357 1 300 332 284 253 312 255 243 296 295 315 306 316 20 139 324 262 157 29 17 336 325 328 328 326 324
239 217 212 271 114 90 99 61 31 115 342 308 332 5 98 317 332 12 354 27 29 12 4 330 284 285 260 306 317 351 341 350 358 7 239 283 294 226 17 357 332 325 326 327 327
210 189 189 190 126 105 138 49 87 215 231 302 19 340 25 4 355 332 11 21 35 87 24 32 335 5 345 343 297 338 29 291 311 318 298 337 276 268 309 357 335 328 327 330 335
184 152 134 73 49 67 67 52 208 198 165 146 71 56 315 342 179 6 5 242 216 161 126 357 278 303 200 287 60 312 2 289 256 234 289 286 288 324 341 349 345 339 339 339 337
155 114 360 40 80 45 70 241 192 234 128 107 138 134 225 285 5 47 353 245 329 184 149 241 290 240 296 356 354 151 303 356 335 350 313 308 315 291 338 337 342 343 341 340 339
125 101 121 203 83 61 172 234 221 231 151 133 173 155 217 254 206 287 251 277 185 313 155 143 211 288 334 29 287 352 355 337 232 318 299 306 309 328 343 336 335 337 340 337 340
121 129 16 162 71 310 149 196 219 160 138 132 133 151 176 197 265 254 244 214 184 162 204 211 249 279 253 234 142 143 3 297 303 311 258 248 290 9 335 335 334 340 341 343 347
105 109 32 8 156 219 258 285 242 162 195 165 185 207 156 198 328 222 246 261 297 139 165 151 308 323 350 28 11 24 347 341 285 275 290 317 298 16 341 350 349 350 351 351 349
135 125 46 347 65 175 158 217 217 281 204 165 142 126 162 265 208 270 261 282 355 168 45 209 227 190 208 225 70 312 337 355 324 353 312 292 306 341 2 352 353 358 358 356 1
95 142 206 175 236 180 194 144 139 206 231 177 27 210 175 203 268 230 243 293 66 1 70 94 208 297 266 267 175 242 281 347 360 328 335 314 326 344 4 356 349 357 7 10 13
142 149 178 132 149 152 191 213 188 195 162 215 196 204 179 195 198 207 177 206 236 352 76 54 269 23 294 302 210 250 291 357 310 318 324 321 325 0 4 2 6 5 5 13 14
136 119 122 148 167 152 209 198 206 152 224 192 193 139 198 238 221 227 231 268 223 136 97 66 88 47 276 340 8 334 233 202 244 310 266 355 315 333 344 15 8 358 6 19 22